Het weer levert geen direct gevaar op.    Er zijn geen waarschuwingen afgegeven.

Onweer radar more information blitzortung!


Regen radar more information rain snow radar


Meteo Sauwerd

Weerstation Alkmaar Centrum

Weerstation Luyksgestel

Website Noardburgum

Weerstation Noordbergum



Select another period ( hide this area )

Eenheden Periode Custom range Directly to
Metrisch Engels Beide
Dagelijkse Wekelijkse Maandelijkse Jaarlijkse
use both date-selectors for a custom range
previous Dag
With this date

WeatherUnderground graphs for this period ( click here )


Dagelijkse Samenvatting Zondag 20 januari 2019
Tijd Temp. ( °C ) Dew pt. ( °C ) Wind ( km/h ) van Windvlaag ( km/h ) Luchtdruk ( hPa ) Humid.( % ) Rainrate ( cm ) Zonneschijn ( W/m2 )
Hoog0,3 -1,7 9,7 Oosten ( 438/555 ) 11,3 1022,2 93 0,30 149
Gemiddeld-3,0 -4,5 2,0 Oosten #168/272 4,1 1017,3 90 0,60 75 #102/272
Laag-5,8 -7,0 -   0,0 1014,1 85 -  
Dagelijkse Tabular details for Zondag 20 januari 2019
Tijd Temp. ( °C ) Dew pt. ( °C ) Wind ( km/h ) van Windvlaag ( km/h ) Luchtdruk ( hPa ) Humid.( % ) Rainrate ( cm ) Zonneschijn ( W/m2 )
00:04 -3,6 -5,3 3,2 Oosten 4,8 1014,1 88 - -
00:09 -3,7 -5,4 3,2 Oosten 6,4 1014,1 88 - -
00:14 -3,8 -5,5 4,7 Oosten 6,4 1014,4 88 - -
00:19 -3,8 -5,5 3,2 Oosten 4,8 1014,4 88 - -
00:24 -3,8 -5,5 4,7 OZO 9,7 1014,4 88 - -
00:29 -3,8 -5,5 1,4 OZO 6,4 1014,1 88 - -
00:34 -3,8 -5,5 4,7 OZO 8,0 1014,1 88 - -
00:39 -3,8 -5,5 4,7 OZO 9,7 1014,1 88 - -
00:44 -3,8 -5,5 4,7 OZO 9,7 1014,1 88 - -
00:49 -3,7 -5,5 9,7 Oosten 9,7 1014,1 87 - -
00:54 -3,7 -5,5 6,4 OZO 9,7 1014,4 87 - -
00:59 -3,7 -5,5 6,4 OZO 9,7 1014,4 87 - -
01:04 -3,7 -5,5 3,2 OZO 6,4 1014,4 87 - -
01:09 -3,7 -5,5 4,7 OZO 9,7 1014,4 87 - -
01:14 -3,8 -5,6 6,4 Oosten 6,4 1014,4 87 - -
01:19 -3,8 -5,6 3,2 OZO 6,4 1014,4 87 - -
01:24 -3,9 -5,7   Windstil 4,8 1014,4 87 - -
01:29 -4,1 -5,9 3,2 OZO 4,8 1014,4 87 - -
01:34 -4,1 -5,9 4,7 OZO 4,8 1014,4 87 - -
01:39 -4,2 -6,0 3,2 Oosten 4,8 1014,4 87 - -
01:44 -4,3 -6,0 4,7 Oosten 6,4 1014,4 88 - -
01:49 -4,3 -6,0 4,7 OZO 9,7 1014,4 88 - -
01:54 -4,4 -6,1 4,7 OZO 6,4 1014,4 88 - -
01:59 -4,4 -6,1 1,4 Oosten 4,8 1014,4 88 - -
02:04 -4,4 -5,9 3,2 Oosten 6,4 1014,4 89 - -
02:09 -4,5 -6,0 1,4 Oosten 3,2 1014,4 89 - -
02:14 -4,6 -6,1 1,4 Oosten 4,8 1014,4 89 - -
02:19 -4,6 -6,1 1,4 Oosten 3,2 1014,4 89 - -
02:24 -4,7 -6,2 1,4 Oosten 4,8 1014,8 89 - -
02:29 -4,7 -6,2 4,7 Oosten 4,8 1014,8 89 - -
02:34 -4,8 -6,3 3,2 Oosten 4,8 1014,4 89 - -
02:39 -4,8 -6,3 3,2 Oosten 4,8 1014,4 89 - -
02:44 -4,8 -6,3 3,2 Oosten 4,8 1014,4 89 - -
02:49 -4,8 -6,2 3,2 Oosten 4,8 1014,4 90 - -
02:54 -4,8 -6,2 6,4 Oosten 6,4 1014,4 90 - -
02:59 -4,8 -6,2 8,0 Oosten 8,0 1014,4 90 - -
03:04 -4,8 -6,3 3,2 Oosten 6,4 1014,4 89 - -
03:09 -4,8 -6,2 3,2 Oosten 6,4 1014,4 90 - -
03:14 -4,8 -6,2 3,2 Oosten 4,8 1014,4 90 - -
03:19 -4,8 -6,2 3,2 Oosten 6,4 1014,4 90 - -
03:24 -4,8 -6,2 6,4 OZO 9,7 1014,4 90 - -
03:29 -4,8 -6,2 3,2 OZO 11,3 1014,4 90 - -
03:34 -4,7 -6,1 4,7 OZO 6,4 1014,4 90 - -
03:39 -4,7 -6,1 3,2 OZO 6,4 1014,4 90 - -
03:44 -4,7 -6,1 1,4 Oosten 6,4 1014,4 90 - -
03:49 -4,7 -6,1 1,4 Oosten 9,7 1014,4 90 - -
03:54 -4,7 -6,1 3,2 Oosten 4,8 1014,8 90 - -
03:59 -4,7 -6,1 1,4 Oosten 4,8 1014,8 90 - -
04:04 -4,8 -6,3 3,2 Oosten 6,4 1014,8 89 - -
04:09 -4,9 -6,4 3,2 Oosten 4,8 1014,4 89 - -
04:14 -5,0 -6,5 3,2 Oosten 4,8 1014,4 89 - -
04:19 -5,1 -6,6 1,4 Oosten 3,2 1014,4 89 - -
04:24 -5,2 -6,7 3,2 Oosten 3,2 1014,4 89 - -
04:29 -5,3 -6,7 1,4 Oosten 3,2 1014,8 90 - -
04:34 -5,3 -6,7 3,2 Oosten 4,8 1014,8 90 - -
04:39 -5,4 -6,8 3,2 Oosten 3,2 1014,4 90 - -
04:44 -5,5 -6,9 3,2 Oosten 6,4 1014,4 90 - -
04:49 -5,4 -6,8 1,4 Oosten 4,8 1014,4 90 - -
04:54 -5,4 -6,6 3,2 Oosten 4,8 1014,4 91 - -
04:59 -5,4 -6,6 4,7 Oosten 4,8 1014,8 91 - -
05:04 -5,4 -6,6 3,2 Oosten 4,8 1014,4 91 - -
05:09 -5,4 -6,6 4,7 Oosten 6,4 1014,8 91 - -
05:14 -5,4 -6,6 3,2 Oosten 4,8 1014,8 91 - -
05:19 -5,4 -6,6 4,7 Oosten 4,8 1014,8 91 - -
05:24 -5,3 -6,5 3,2 Oosten 6,4 1014,8 91 - -
05:29 -5,3 -6,5 3,2 Oosten 6,4 1014,8 91 - -
05:34 -5,3 -6,5 3,2 Oosten 4,8 1014,8 91 - -
05:39 -5,3 -6,5 3,2 Oosten 6,4 1014,8 91 - -
05:44 -5,3 -6,5 3,2 Oosten 4,8 1014,8 91 - -
05:49 -5,3 -6,5 4,7 Oosten 6,4 1014,8 91 - -
05:54 -5,3 -6,5 1,4 Oosten 6,4 1014,8 91 - -
05:59 -5,4 -6,6   Windstil 4,8 1014,8 91 - -
06:04 -5,4 -6,6 1,4 Oosten 3,2 1014,8 91 - -
06:09 -5,4 -6,6 3,2 Oosten 4,8 1014,8 91 - -
06:14 -5,5 -6,7 1,4 Oosten 4,8 1014,8 91 - -
06:19 -5,6 -6,8 3,2 Oosten 4,8 1014,8 91 - -
06:24 -5,6 -6,8 1,4 Oosten 4,8 1014,8 91 - -
06:29 -5,6 -6,8 4,7 Oosten 6,4 1014,8 91 - -
06:34 -5,6 -6,8 3,2 Oosten 4,8 1014,8 91 - -
06:39 -5,6 -6,8 4,7 Oosten 4,8 1014,8 91 - -
06:44 -5,6 -6,8 3,2 Oosten 6,4 1014,8 91 - -
06:49 -5,7 -6,9 1,4 Oosten 3,2 1014,8 91 - -
06:54 -5,7 -6,9 4,7 Oosten 9,7 1015,1 91 - -
06:59 -5,8 -7,0 3,2 Oosten 4,8 1015,1 91 - -
07:04 -5,8 -7,0 3,2 Oosten 6,4 1015,1 91 - -
07:09 -5,8 -7,0 3,2 Oosten 4,8 1015,1 91 - -
07:14 -5,7 -6,8 1,4 Oosten 4,8 1015,1 92 - -
07:19 -5,7 -6,8 4,7 Oosten 4,8 1015,1 92 - -
07:24 -5,7 -6,8 4,7 Oosten 4,8 1015,1 92 - -
07:29 -5,6 -6,7 4,7 Oosten 6,4 1015,1 92 - -
07:34 -5,6 -6,7 3,2 Oosten 4,8 1015,1 92 - -
07:39 -5,6 -6,7 3,2 Oosten 6,4 1015,1 92 - -
07:44 -5,6 -6,7 3,2 Oosten 4,8 1015,1 92 - -
07:49 -5,6 -6,7 1,4 Oosten 4,8 1015,1 92 - -
07:54 -5,6 -6,7 3,2 Oosten 6,4 1015,1 92 - -
07:59 -5,6 -6,7 3,2 Oosten 6,4 1015,5 92 - -
08:04 -5,6 -6,7 1,4 Oosten 4,8 1015,5 92 - -
08:09 -5,6 -6,7 1,4 Oosten 4,8 1015,5 92 - -
08:14 -5,7 -6,8 1,4 Oosten 4,8 1015,5 92 - -
08:19 -5,6 -6,7 3,2 Oosten 4,8 1015,5 92 - -
08:24 -5,6 -6,7 3,2 Oosten 4,8 1015,5 92 - -
08:29 -5,6 -6,7   Windstil 3,2 1015,8 92 - -
08:34 -5,6 -6,7 1,4 Oosten 4,8 1015,8 92 - -
08:39 -5,6 -6,7   Windstil 3,2 1015,8 92 - 5
08:44 -5,6 -6,7 1,4 Oosten 4,8 1015,8 92 - 7
08:49 -5,6 -6,7   Windstil 3,2 1015,8 92 - 9
08:54 -5,6 -6,7 3,2 Oosten 3,2 1016,1 92 - 11
08:59 -5,6 -6,7   Windstil 3,2 1016,1 92 - 12
09:04 -5,7 -6,8 1,4 Oosten 1,6 1016,1 92 - 16
09:09 -5,6 -6,7 1,4 Oosten 3,2 1016,1 92 - 18
09:14 -5,6 -6,7 1,4 Oosten 3,2 1016,1 92 - 23
09:19 -5,4 -6,5   Windstil 1,6 1016,1 92 - 25
09:24 -5,4 -6,4 1,4 Oosten 4,8 1016,1 93 - 28
09:29 -5,2 -6,2 1,4 Oosten 3,2 1016,1 93 - 30
09:34 -5,1 -6,1   Windstil 3,2 1016,5 93 - 35
09:39 -4,9 -5,9 3,2 Oosten 3,2 1016,5 93 - 39
09:44 -4,8 -5,8 3,2 Oosten 6,4 1016,5 93 - 44
09:49 -4,5 -5,5 6,4 OZO 9,7 1016,5 93 - 47
09:54 -4,2 -5,2 1,4 OZO 3,2 1016,5 93 - 51
09:59 -4,1 -5,1 3,2 OZO 6,4 1016,5 93 - 54
10:04 -3,9 -4,9 1,4 ONO 4,8 1016,8 93 - 56
10:09 -3,7 -4,7 4,7 ONO 6,4 1016,5 93 - 58
10:14 -3,6 -4,6 1,4 ONO 4,8 1016,8 93 - 62
10:19 -3,4 -4,4 3,2 ONO 6,4 1016,8 93 - 69
10:24 -3,2 -4,2   Windstil 3,2 1016,8 93 - 70
10:29 -3,0 -4,0   Windstil 4,8 1016,8 93 - 74
10:34 -2,9 -3,9 1,4 Oosten 1,6 1016,8 93 - 77
10:39 -2,8 -3,8 1,4 Oosten 4,8 1016,8 93 - 79
10:44 -2,7 -3,7   Windstil 3,2 1016,8 93 - 81
10:49 -2,5 -3,5 1,4 Oosten 3,2 1016,8 93 - 86
10:54 -2,4 -3,4 1,4 Oosten 3,2 1017,2 93 - 86
10:59 -2,3 -3,3 1,4 Oosten 6,4 1017,2 93 - 86
11:04 -2,2 -3,3 3,2 Oosten 4,8 1017,2 92 - 84
11:09 -2,2 -3,3   Windstil 1,6 1017,2 92 - 86
11:14 -2,1 -3,2   Windstil 1,6 1017,2 92 - 91
11:19 -2,1 -3,2 1,4 Oosten 3,2 1017,2 92 - 95
11:24 -2,0 -3,3 1,4 Oosten 3,2 1017,2 91 - 91
11:29 -1,9 -3,2 1,4 Oosten 3,2 1017,2 91 - 95
11:34 -1,8 -3,1 3,2 Oosten 4,8 1017,2 91 - 104
11:39 -1,8 -3,1 3,2 Oosten 4,8 1017,5 91 - 113
11:44 -1,7 -3,0 3,2 Oosten 6,4 1017,5 91 - 107
11:49 -1,6 -2,9 1,4 Oosten 6,4 1017,5 91 - 98
11:54 -1,6 -2,9   Windstil 4,8 1017,5 91 - 93
11:59 -1,5 -2,9 1,4 Oosten 3,2 1017,5 90 - 95
12:04 -1,4 -2,8 4,7 Oosten 4,8 1017,5 90 - 98
12:09 -1,3 -2,7 1,4 Oosten 3,2 1017,5 90 - 102
12:14 -1,3 -2,7   Windstil 4,8 1017,5 90 - 111
12:19 -1,2 -2,6 1,4 Oosten 3,2 1017,5 90 - 121
12:24 -1,2 -2,6 1,4 Oosten 3,2 1017,5 90 - 128
12:29 -1,1 -2,5 1,4 Oosten 1,6 1017,5 90 - 134
12:34 -1,0 -2,4 1,4 OZO 6,4 1017,5 90 - 135
12:39 -0,9 -2,3 4,7 OZO 4,8 1017,5 90 - 128
12:44 -0,8 -2,2 4,7 OZO 6,4 1017,5 90 - 127
12:49 -0,7 -2,1 1,4 OZO 3,2 1017,5 90 - 135
12:54 -0,7 -2,3   Windstil 1,6 1017,5 89 - 148
12:59 -0,6 -2,2   Windstil   1017,5 89 0,30 149
13:04 -0,5 -2,2 1,4 OZO 4,8 1017,8 88 0,30 146
13:09 -0,4 -2,1   Windstil 3,2 1017,8 88 0,30 139
13:14 -0,4 -2,1 1,4 OZO 4,8 1017,8 88 0,30 132
13:19 -0,3 -2,0 1,4 OZO 3,2 1017,8 88 0,30 132
13:24 -0,3 -2,0 3,2 Oosten 4,8 1017,8 88 0,30 121
13:29 -0,2 -1,9   Windstil 3,2 1017,8 88 0,30 116
13:34 -0,2 -1,9   Windstil 4,8 1017,8 88 0,30 113
13:39 -0,1 -1,8 4,7 Oosten 4,8 1017,8 88 0,30 113
13:44 -0,1 -1,8 6,4 Oosten 9,7 1017,8 88 0,30 116
13:49 0,0 -1,9 3,2 Oosten 4,8 1017,8 87 0,30 114
13:54 0,1 -1,8   Windstil 3,2 1017,8 87 0,30 114
13:59 0,1 -2,0   Windstil 4,8 1017,8 86 - 118
14:04 0,1 -2,0 3,2 Oosten 4,8 1017,8 86 - 118
14:09 0,2 -1,9   Windstil 3,2 1017,8 86 - 118
14:14 0,2 -1,9   Windstil 4,8 1017,8 86 - 114
14:19 0,2 -1,9   Windstil 3,2 1017,8 86 - 107
14:24 0,3 -1,8 1,4 Oosten 4,8 1017,8 86 - 98
14:29 0,2 -2,0 1,4 Oosten 4,8 1017,8 85 - 93
14:34 0,2 -2,0 3,2 Oosten 4,8 1017,8 85 - 100
14:39 0,2 -1,9   Windstil 3,2 1017,8 86 - 111
14:44 0,3 -1,8 4,7 Oosten 4,8 1017,8 86 - 109
14:49 0,3 -1,8 3,2 Oosten 3,2 1017,8 86 - 104
14:54 0,3 -1,8   Windstil 4,8 1017,8 86 - 98
14:59 0,3 -1,8   Windstil 1,6 1017,8 86 - 93
15:04 0,3 -1,8 3,2 Oosten 4,8 1017,8 86 - 88
15:09 0,3 -1,8 1,4 Oosten 3,2 1017,8 86 - 83
15:14 0,3 -1,8 1,4 Oosten 3,2 1017,8 86 - 77
15:19 0,3 -1,8   Windstil 3,2 1017,8 86 - 74
15:24 0,2 -1,9 3,2 Oosten 4,8 1017,8 86 - 69
15:29 0,2 -1,9   Windstil 3,2 1017,8 86 - 65
15:34 0,2 -1,9 3,2 Oosten 4,8 1017,8 86 - 62
15:39 0,2 -1,9 3,2 Oosten 3,2 1019,2 86 - 56
15:44 0,2 -1,7 1,4 Oosten 3,2 1019,2 87 - 53
15:49 0,2 -1,7 1,4 Oosten 3,2 1019,2 87 - 47
15:54 0,2 -1,7 3,2 Oosten 3,2 1019,5 87 - 42
15:59 0,1 -1,8 3,2 Oosten 4,8 1019,2 87 - 39
16:04 0,1 -1,8 1,4 Oosten 3,2 1019,2 87 - 33
16:09 0,1 -1,8   Windstil 3,2 1019,2 87 - 28
16:14 0,0 -1,9 1,4 Oosten 3,2 1019,2 87 - 26
16:19 -0,1 -2,0 1,4 Oosten 4,8 1019,2 87 - 23
16:24 -0,1 -2,0 3,2 Oosten 6,4 1019,2 87 - 19
16:29 -0,2 -1,9 1,4 Oosten 6,4 1019,2 88 - 16
16:34 -0,2 -1,9 1,4 Oosten 3,2 1019,2 88 - 12
16:39 -0,2 -1,9 1,4 Oosten 3,2 1019,5 88 - 11
16:44 -0,3 -2,0 1,4 Oosten 3,2 1019,5 88 - 9
16:49 -0,3 -2,0 1,4 Oosten 3,2 1019,5 88 - 7
16:54 -0,4 -2,1 1,4 Oosten 3,2 1019,9 88 - 5
16:59 -0,4 -2,1 1,4 Oosten 4,8 1019,9 88 - 5
17:04 -0,5 -2,2 3,2 Oosten 4,8 1019,9 88 - 5
17:09 -0,6 -2,3 1,4 Oosten 3,2 1019,9 88 - -
17:14 -0,7 -2,4 1,4 Oosten 3,2 1019,9 88 - -
17:19 -0,7 -2,4 1,4 Oosten 3,2 1019,9 88 - -
17:24 -0,8 -2,5   Windstil   1019,9 88 - -
17:29 -0,9 -2,6   Windstil 1,6 1019,9 88 - -
17:34 -1,1 -2,8   Windstil   1019,9 88 - -
17:39 -1,2 -2,9   Windstil 1,6 1019,9 88 - -
17:44 -1,3 -3,0   Windstil 1,6 1019,9 88 - -
17:49 -1,4 -3,1   Windstil 1,6 1019,9 88 - -
17:54 -1,6 -3,3 1,4 Oosten 1,6 1020,2 88 - -
17:59 -1,7 -3,3 1,4 Oosten 3,2 1020,2 89 - -
18:04 -1,8 -3,4   Windstil 1,6 1020,2 89 - -
18:09 -1,8 -3,4 1,4 Oosten 3,2 1020,2 89 - -
18:14 -1,9 -3,3   Windstil 1,6 1020,5 90 - -
18:19 -1,9 -3,3   Windstil 3,2 1020,5 90 - -
18:24 -1,9 -3,3   Windstil   1020,5 90 - -
18:29 -2,1 -3,5   Windstil 1,6 1020,5 90 - -
18:34 -2,1 -3,5 1,4 Oosten 4,8 1020,5 90 - -
18:39 -2,2 -3,6 1,4 Oosten 3,2 1020,5 90 - -
18:44 -2,2 -3,6 3,2 Oosten 4,8 1020,5 90 - -
18:49 -2,2 -3,5   Windstil 1,6 1020,2 91 - -
18:54 -2,2 -3,5 1,4 Oosten 3,2 1020,2 91 - -
18:59 -2,2 -3,5   Windstil 1,6 1020,5 91 - -
19:04 -2,2 -3,5   Windstil   1020,5 91 - -
19:09 -2,3 -3,6 1,4 Oosten 1,6 1020,5 91 - -
19:14 -2,3 -3,6   Windstil   1020,5 91 - -
19:19 -2,3 -3,6   Windstil 1,6 1020,9 91 - -
19:24 -2,3 -3,6 3,2 Oosten 4,8 1020,9 91 - -
19:29 -2,4 -3,7 3,2 Oosten 4,8 1020,9 91 - -
19:34 -2,4 -3,5 1,4 Oosten 4,8 1021,2 92 - -
19:39 -2,4 -3,5 1,4 Oosten 3,2 1021,2 92 - -
19:44 -2,4 -3,5 1,4 Oosten 4,8 1021,2 92 - -
19:49 -2,4 -3,5   Windstil 3,2 1021,2 92 - -
19:54 -2,5 -3,6   Windstil   1021,2 92 - -
19:59 -2,4 -3,5 1,4 Oosten 3,2 1021,2 92 - -
20:04 -2,5 -3,6   Windstil 1,6 1021,2 92 - -
20:09 -2,4 -3,5 1,4 Oosten 4,8 1021,2 92 - -
20:14 -2,5 -3,6   Windstil 3,2 1021,2 92 - -
20:19 -2,5 -3,6 1,4 Oosten 1,6 1021,2 92 - -
20:24 -2,5 -3,6   Windstil 1,6 1021,2 92 - -
20:29 -2,5 -3,6 1,4 Oosten 1,6 1021,2 92 - -
20:34 -2,5 -3,6 1,4 Oosten 1,6 1021,6 92 - -
20:39 -2,5 -3,6 1,4 Oosten 1,6 1021,6 92 - -
20:44 -2,6 -3,7 3,2 Oosten 3,2 1021,6 92 - -
20:49 -2,6 -3,7 1,4 Oosten 1,6 1021,6 92 - -
20:54 -2,6 -3,7 1,4 Oosten 1,6 1021,6 92 - -
20:59 -2,6 -3,7   Windstil   1021,6 92 - -
21:04 -2,6 -3,7   Windstil   1021,6 92 - -
21:09 -2,6 -3,7 1,4 Oosten 1,6 1021,6 92 - -
21:14 -2,6 -3,6   Windstil   1021,6 93 - -
21:19 -2,7 -3,8   Windstil   1021,6 92 - -
21:24 -2,7 -3,8   Windstil   1021,6 92 - -
21:29 -2,7 -3,8   Windstil   1021,6 92 - -
21:34 -2,8 -3,9   Windstil   1021,6 92 - -
21:39 -2,9 -4,0   Windstil   1021,9 92 - -
21:44 -3,1 -4,2   Windstil   1021,6 92 - -
21:49 -3,2 -4,3   Windstil   1021,9 92 - -
21:54 -3,2 -4,3   Windstil   1021,9 92 - -
21:59 -3,3 -4,4   Windstil   1021,9 92 - -
22:04 -3,4 -4,5   Windstil 1,6 1021,9 92 - -
22:09 -3,6 -4,7   Windstil   1021,9 92 - -
22:14 -3,7 -4,8   Windstil   1021,9 92 - -
22:19 -3,7 -4,8   Windstil   1021,9 92 - -
22:24 -3,8 -4,9   Windstil   1022,2 92 - -
22:29 -3,9 -5,0   Windstil   1022,2 92 - -
22:34 -4,0 -5,1   Windstil   1022,2 92 - -
22:39 -4,1 -5,2   Windstil   1022,2 92 - -
Dagelijkse Samenvatting Zondag 20 januari 2019
Tijd Temp. ( °C ) Dew pt. ( °C ) Wind ( km/h ) van Windvlaag ( km/h ) Luchtdruk ( hPa ) Humid.( % ) Rainrate ( cm ) Zonneschijn ( W/m2 )
Hoog0,3 -1,7 9,7 Oosten ( 438/555 ) 11,3 1022,2 93 0,30 149
Gemiddeld-3,0 -4,5 2,0 Oosten #168/272 4,1 1017,3 90 0,60 75 #102/272
Laag-5,8 -7,0 -   0,0 1014,1 85 -  
Dagelijkse Tabular details for Zondag 20 januari 2019
Tijd Temp. ( °C ) Dew pt. ( °C ) Wind ( km/h ) van Windvlaag ( km/h ) Luchtdruk ( hPa ) Humid.( % ) Rainrate ( cm ) Zonneschijn ( W/m2 )
00:04 -3,6 -5,3 3,2 Oosten 4,8 1014,1 88 - -
00:09 -3,7 -5,4 3,2 Oosten 6,4 1014,1 88 - -
00:14 -3,8 -5,5 4,7 Oosten 6,4 1014,4 88 - -
00:19 -3,8 -5,5 3,2 Oosten 4,8 1014,4 88 - -
00:24 -3,8 -5,5 4,7 OZO 9,7 1014,4 88 - -
00:29 -3,8 -5,5 1,4 OZO 6,4 1014,1 88 - -
00:34 -3,8 -5,5 4,7 OZO 8,0 1014,1 88 - -
00:39 -3,8 -5,5 4,7 OZO 9,7 1014,1 88 - -
00:44 -3,8 -5,5 4,7 OZO 9,7 1014,1 88 - -
00:49 -3,7 -5,5 9,7 Oosten 9,7 1014,1 87 - -
00:54 -3,7 -5,5 6,4 OZO 9,7 1014,4 87 - -
00:59 -3,7 -5,5 6,4 OZO 9,7 1014,4 87 - -
01:04 -3,7 -5,5 3,2 OZO 6,4 1014,4 87 - -
01:09 -3,7 -5,5 4,7 OZO 9,7 1014,4 87 - -
01:14 -3,8 -5,6 6,4 Oosten 6,4 1014,4 87 - -
01:19 -3,8 -5,6 3,2 OZO 6,4 1014,4 87 - -
01:24 -3,9 -5,7   Windstil 4,8 1014,4 87 - -
01:29 -4,1 -5,9 3,2 OZO 4,8 1014,4 87 - -
01:34 -4,1 -5,9 4,7 OZO 4,8 1014,4 87 - -
01:39 -4,2 -6,0 3,2 Oosten 4,8 1014,4 87 - -
01:44 -4,3 -6,0 4,7 Oosten 6,4 1014,4 88 - -
01:49 -4,3 -6,0 4,7 OZO 9,7 1014,4 88 - -
01:54 -4,4 -6,1 4,7 OZO 6,4 1014,4 88 - -
01:59 -4,4 -6,1 1,4 Oosten 4,8 1014,4 88 - -
02:04 -4,4 -5,9 3,2 Oosten 6,4 1014,4 89 - -
02:09 -4,5 -6,0 1,4 Oosten 3,2 1014,4 89 - -
02:14 -4,6 -6,1 1,4 Oosten 4,8 1014,4 89 - -
02:19 -4,6 -6,1 1,4 Oosten 3,2 1014,4 89 - -
02:24 -4,7 -6,2 1,4 Oosten 4,8 1014,8 89 - -
02:29 -4,7 -6,2 4,7 Oosten 4,8 1014,8 89 - -
02:34 -4,8 -6,3 3,2 Oosten 4,8 1014,4 89 - -
02:39 -4,8 -6,3 3,2 Oosten 4,8 1014,4 89 - -
02:44 -4,8 -6,3 3,2 Oosten 4,8 1014,4 89 - -
02:49 -4,8 -6,2 3,2 Oosten 4,8 1014,4 90 - -
02:54 -4,8 -6,2 6,4 Oosten 6,4 1014,4 90 - -
02:59 -4,8 -6,2 8,0 Oosten 8,0 1014,4 90 - -
03:04 -4,8 -6,3 3,2 Oosten 6,4 1014,4 89 - -
03:09 -4,8 -6,2 3,2 Oosten 6,4 1014,4 90 - -
03:14 -4,8 -6,2 3,2 Oosten 4,8 1014,4 90 - -
03:19 -4,8 -6,2 3,2 Oosten 6,4 1014,4 90 - -
03:24 -4,8 -6,2 6,4 OZO 9,7 1014,4 90 - -
03:29 -4,8 -6,2 3,2 OZO 11,3 1014,4 90 - -
03:34 -4,7 -6,1 4,7 OZO 6,4 1014,4 90 - -
03:39 -4,7 -6,1 3,2 OZO 6,4 1014,4 90 - -
03:44 -4,7 -6,1 1,4 Oosten 6,4 1014,4 90 - -
03:49 -4,7 -6,1 1,4 Oosten 9,7 1014,4 90 - -
03:54 -4,7 -6,1 3,2 Oosten 4,8 1014,8 90 - -
03:59 -4,7 -6,1 1,4 Oosten 4,8 1014,8 90 - -
04:04 -4,8 -6,3 3,2 Oosten 6,4 1014,8 89 - -
04:09 -4,9 -6,4 3,2 Oosten 4,8 1014,4 89 - -
04:14 -5,0 -6,5 3,2 Oosten 4,8 1014,4 89 - -
04:19 -5,1 -6,6 1,4 Oosten 3,2 1014,4 89 - -
04:24 -5,2 -6,7 3,2 Oosten 3,2 1014,4 89 - -
04:29 -5,3 -6,7 1,4 Oosten 3,2 1014,8 90 - -
04:34 -5,3 -6,7 3,2 Oosten 4,8 1014,8 90 - -
04:39 -5,4 -6,8 3,2 Oosten 3,2 1014,4 90 - -
04:44 -5,5 -6,9 3,2 Oosten 6,4 1014,4 90 - -
04:49 -5,4 -6,8 1,4 Oosten 4,8 1014,4 90 - -
04:54 -5,4 -6,6 3,2 Oosten 4,8 1014,4 91 - -
04:59 -5,4 -6,6 4,7 Oosten 4,8 1014,8 91 - -
05:04 -5,4 -6,6 3,2 Oosten 4,8 1014,4 91 - -
05:09 -5,4 -6,6 4,7 Oosten 6,4 1014,8 91 - -
05:14 -5,4 -6,6 3,2 Oosten 4,8 1014,8 91 - -
05:19 -5,4 -6,6 4,7 Oosten 4,8 1014,8 91 - -
05:24 -5,3 -6,5 3,2 Oosten 6,4 1014,8 91 - -
05:29 -5,3 -6,5 3,2 Oosten 6,4 1014,8 91 - -
05:34 -5,3 -6,5 3,2 Oosten 4,8 1014,8 91 - -
05:39 -5,3 -6,5 3,2 Oosten 6,4 1014,8 91 - -
05:44 -5,3 -6,5 3,2 Oosten 4,8 1014,8 91 - -
05:49 -5,3 -6,5 4,7 Oosten 6,4 1014,8 91 - -
05:54 -5,3 -6,5 1,4 Oosten 6,4 1014,8 91 - -
05:59 -5,4 -6,6   Windstil 4,8 1014,8 91 - -
06:04 -5,4 -6,6 1,4 Oosten 3,2 1014,8 91 - -
06:09 -5,4 -6,6 3,2 Oosten 4,8 1014,8 91 - -
06:14 -5,5 -6,7 1,4 Oosten 4,8 1014,8 91 - -
06:19 -5,6 -6,8 3,2 Oosten 4,8 1014,8 91 - -
06:24 -5,6 -6,8 1,4 Oosten 4,8 1014,8 91 - -
06:29 -5,6 -6,8 4,7 Oosten 6,4 1014,8 91 - -
06:34 -5,6 -6,8 3,2 Oosten 4,8 1014,8 91 - -
06:39 -5,6 -6,8 4,7 Oosten 4,8 1014,8 91 - -
06:44 -5,6 -6,8 3,2 Oosten 6,4 1014,8 91 - -
06:49 -5,7 -6,9 1,4 Oosten 3,2 1014,8 91 - -
06:54 -5,7 -6,9 4,7 Oosten 9,7 1015,1 91 - -
06:59 -5,8 -7,0 3,2 Oosten 4,8 1015,1 91 - -
07:04 -5,8 -7,0 3,2 Oosten 6,4 1015,1 91 - -
07:09 -5,8 -7,0 3,2 Oosten 4,8 1015,1 91 - -
07:14 -5,7 -6,8 1,4 Oosten 4,8 1015,1 92 - -
07:19 -5,7 -6,8 4,7 Oosten 4,8 1015,1 92 - -
07:24 -5,7 -6,8 4,7 Oosten 4,8 1015,1 92 - -
07:29 -5,6 -6,7 4,7 Oosten 6,4 1015,1 92 - -
07:34 -5,6 -6,7 3,2 Oosten 4,8 1015,1 92 - -
07:39 -5,6 -6,7 3,2 Oosten 6,4 1015,1 92 - -
07:44 -5,6 -6,7 3,2 Oosten 4,8 1015,1 92 - -
07:49 -5,6 -6,7 1,4 Oosten 4,8 1015,1 92 - -
07:54 -5,6 -6,7 3,2 Oosten 6,4 1015,1 92 - -
07:59 -5,6 -6,7 3,2 Oosten 6,4 1015,5 92 - -
08:04 -5,6 -6,7 1,4 Oosten 4,8 1015,5 92 - -
08:09 -5,6 -6,7 1,4 Oosten 4,8 1015,5 92 - -
08:14 -5,7 -6,8 1,4 Oosten 4,8 1015,5 92 - -
08:19 -5,6 -6,7 3,2 Oosten 4,8 1015,5 92 - -
08:24 -5,6 -6,7 3,2 Oosten 4,8 1015,5 92 - -
08:29 -5,6 -6,7   Windstil 3,2 1015,8 92 - -
08:34 -5,6 -6,7 1,4 Oosten 4,8 1015,8 92 - -
08:39 -5,6 -6,7   Windstil 3,2 1015,8 92 - 5
08:44 -5,6 -6,7 1,4 Oosten 4,8 1015,8 92 - 7
08:49 -5,6 -6,7   Windstil 3,2 1015,8 92 - 9
08:54 -5,6 -6,7 3,2 Oosten 3,2 1016,1 92 - 11
08:59 -5,6 -6,7   Windstil 3,2 1016,1 92 - 12
09:04 -5,7 -6,8 1,4 Oosten 1,6 1016,1 92 - 16
09:09 -5,6 -6,7 1,4 Oosten 3,2 1016,1 92 - 18
09:14 -5,6 -6,7 1,4 Oosten 3,2 1016,1 92 - 23
09:19 -5,4 -6,5   Windstil 1,6 1016,1 92 - 25
09:24 -5,4 -6,4 1,4 Oosten 4,8 1016,1 93 - 28
09:29 -5,2 -6,2 1,4 Oosten 3,2 1016,1 93 - 30
09:34 -5,1 -6,1   Windstil 3,2 1016,5 93 - 35
09:39 -4,9 -5,9 3,2 Oosten 3,2 1016,5 93 - 39
09:44 -4,8 -5,8 3,2 Oosten 6,4 1016,5 93 - 44
09:49 -4,5 -5,5 6,4 OZO 9,7 1016,5 93 - 47
09:54 -4,2 -5,2 1,4 OZO 3,2 1016,5 93 - 51
09:59 -4,1 -5,1 3,2 OZO 6,4 1016,5 93 - 54
10:04 -3,9 -4,9 1,4 ONO 4,8 1016,8 93 - 56
10:09 -3,7 -4,7 4,7 ONO 6,4 1016,5 93 - 58
10:14 -3,6 -4,6 1,4 ONO 4,8 1016,8 93 - 62
10:19 -3,4 -4,4 3,2 ONO 6,4 1016,8 93 - 69
10:24 -3,2 -4,2   Windstil 3,2 1016,8 93 - 70
10:29 -3,0 -4,0   Windstil 4,8 1016,8 93 - 74
10:34 -2,9 -3,9 1,4 Oosten 1,6 1016,8 93 - 77
10:39 -2,8 -3,8 1,4 Oosten 4,8 1016,8 93 - 79
10:44 -2,7 -3,7   Windstil 3,2 1016,8 93 - 81
10:49 -2,5 -3,5 1,4 Oosten 3,2 1016,8 93 - 86
10:54 -2,4 -3,4 1,4 Oosten 3,2 1017,2 93 - 86
10:59 -2,3 -3,3 1,4 Oosten 6,4 1017,2 93 - 86
11:04 -2,2 -3,3 3,2 Oosten 4,8 1017,2 92 - 84
11:09 -2,2 -3,3   Windstil 1,6 1017,2 92 - 86
11:14 -2,1 -3,2   Windstil 1,6 1017,2 92 - 91
11:19 -2,1 -3,2 1,4 Oosten 3,2 1017,2 92 - 95
11:24 -2,0 -3,3 1,4 Oosten 3,2 1017,2 91 - 91
11:29 -1,9 -3,2 1,4 Oosten 3,2 1017,2 91 - 95
11:34 -1,8 -3,1 3,2 Oosten 4,8 1017,2 91 - 104
11:39 -1,8 -3,1 3,2 Oosten 4,8 1017,5 91 - 113
11:44 -1,7 -3,0 3,2 Oosten 6,4 1017,5 91 - 107
11:49 -1,6 -2,9 1,4 Oosten 6,4 1017,5 91 - 98
11:54 -1,6 -2,9   Windstil 4,8 1017,5 91 - 93
11:59 -1,5 -2,9 1,4 Oosten 3,2 1017,5 90 - 95
12:04 -1,4 -2,8 4,7 Oosten 4,8 1017,5 90 - 98
12:09 -1,3 -2,7 1,4 Oosten 3,2 1017,5 90 - 102
12:14 -1,3 -2,7   Windstil 4,8 1017,5 90 - 111
12:19 -1,2 -2,6 1,4 Oosten 3,2 1017,5 90 - 121
12:24 -1,2 -2,6 1,4 Oosten 3,2 1017,5 90 - 128
12:29 -1,1 -2,5 1,4 Oosten 1,6 1017,5 90 - 134
12:34 -1,0 -2,4 1,4 OZO 6,4 1017,5 90 - 135
12:39 -0,9 -2,3 4,7 OZO 4,8 1017,5 90 - 128
12:44 -0,8 -2,2 4,7 OZO 6,4 1017,5 90 - 127
12:49 -0,7 -2,1 1,4 OZO 3,2 1017,5 90 - 135
12:54 -0,7 -2,3   Windstil 1,6 1017,5 89 - 148
12:59 -0,6 -2,2   Windstil   1017,5 89 0,30 149
13:04 -0,5 -2,2 1,4 OZO 4,8 1017,8 88 0,30 146
13:09 -0,4 -2,1   Windstil 3,2 1017,8 88 0,30 139
13:14 -0,4 -2,1 1,4 OZO 4,8 1017,8 88 0,30 132
13:19 -0,3 -2,0 1,4 OZO 3,2 1017,8 88 0,30 132
13:24 -0,3 -2,0 3,2 Oosten 4,8 1017,8 88 0,30 121
13:29 -0,2 -1,9   Windstil 3,2 1017,8 88 0,30 116
13:34 -0,2 -1,9   Windstil 4,8 1017,8 88 0,30 113
13:39 -0,1 -1,8 4,7 Oosten 4,8 1017,8 88 0,30 113
13:44 -0,1 -1,8 6,4 Oosten 9,7 1017,8 88 0,30 116
13:49 0,0 -1,9 3,2 Oosten 4,8 1017,8 87 0,30 114
13:54 0,1 -1,8   Windstil 3,2 1017,8 87 0,30 114
13:59 0,1 -2,0   Windstil 4,8 1017,8 86 - 118
14:04 0,1 -2,0 3,2 Oosten 4,8 1017,8 86 - 118
14:09 0,2 -1,9   Windstil 3,2 1017,8 86 - 118
14:14 0,2 -1,9   Windstil 4,8 1017,8 86 - 114
14:19 0,2 -1,9   Windstil 3,2 1017,8 86 - 107
14:24 0,3 -1,8 1,4 Oosten 4,8 1017,8 86 - 98
14:29 0,2 -2,0 1,4 Oosten 4,8 1017,8 85 - 93
14:34 0,2 -2,0 3,2 Oosten 4,8 1017,8 85 - 100
14:39 0,2 -1,9   Windstil 3,2 1017,8 86 - 111
14:44 0,3 -1,8 4,7 Oosten 4,8 1017,8 86 - 109
14:49 0,3 -1,8 3,2 Oosten 3,2 1017,8 86 - 104
14:54 0,3 -1,8   Windstil 4,8 1017,8 86 - 98
14:59 0,3 -1,8   Windstil 1,6 1017,8 86 - 93
15:04 0,3 -1,8 3,2 Oosten 4,8 1017,8 86 - 88
15:09 0,3 -1,8 1,4 Oosten 3,2 1017,8 86 - 83
15:14 0,3 -1,8 1,4 Oosten 3,2 1017,8 86 - 77
15:19 0,3 -1,8   Windstil 3,2 1017,8 86 - 74
15:24 0,2 -1,9 3,2 Oosten 4,8 1017,8 86 - 69
15:29 0,2 -1,9   Windstil 3,2 1017,8 86 - 65
15:34 0,2 -1,9 3,2 Oosten 4,8 1017,8 86 - 62
15:39 0,2 -1,9 3,2 Oosten 3,2 1019,2 86 - 56
15:44 0,2 -1,7 1,4 Oosten 3,2 1019,2 87 - 53
15:49 0,2 -1,7 1,4 Oosten 3,2 1019,2 87 - 47
15:54 0,2 -1,7 3,2 Oosten 3,2 1019,5 87 - 42
15:59 0,1 -1,8 3,2 Oosten 4,8 1019,2 87 - 39
16:04 0,1 -1,8 1,4 Oosten 3,2 1019,2 87 - 33
16:09 0,1 -1,8   Windstil 3,2 1019,2 87 - 28
16:14 0,0 -1,9 1,4 Oosten 3,2 1019,2 87 - 26
16:19 -0,1 -2,0 1,4 Oosten 4,8 1019,2 87 - 23
16:24 -0,1 -2,0 3,2 Oosten 6,4 1019,2 87 - 19
16:29 -0,2 -1,9 1,4 Oosten 6,4 1019,2 88 - 16
16:34 -0,2 -1,9 1,4 Oosten 3,2 1019,2 88 - 12
16:39 -0,2 -1,9 1,4 Oosten 3,2 1019,5 88 - 11
16:44 -0,3 -2,0 1,4 Oosten 3,2 1019,5 88 - 9
16:49 -0,3 -2,0 1,4 Oosten 3,2 1019,5 88 - 7
16:54 -0,4 -2,1 1,4 Oosten 3,2 1019,9 88 - 5
16:59 -0,4 -2,1 1,4 Oosten 4,8 1019,9 88 - 5
17:04 -0,5 -2,2 3,2 Oosten 4,8 1019,9 88 - 5
17:09 -0,6 -2,3 1,4 Oosten 3,2 1019,9 88 - -
17:14 -0,7 -2,4 1,4 Oosten 3,2 1019,9 88 - -
17:19 -0,7 -2,4 1,4 Oosten 3,2 1019,9 88 - -
17:24 -0,8 -2,5   Windstil   1019,9 88 - -
17:29 -0,9 -2,6   Windstil 1,6 1019,9 88 - -
17:34 -1,1 -2,8   Windstil   1019,9 88 - -
17:39 -1,2 -2,9   Windstil 1,6 1019,9 88 - -
17:44 -1,3 -3,0   Windstil 1,6 1019,9 88 - -
17:49 -1,4 -3,1   Windstil 1,6 1019,9 88 - -
17:54 -1,6 -3,3 1,4 Oosten 1,6 1020,2 88 - -
17:59 -1,7 -3,3 1,4 Oosten 3,2 1020,2 89 - -
18:04 -1,8 -3,4   Windstil 1,6 1020,2 89 - -
18:09 -1,8 -3,4 1,4 Oosten 3,2 1020,2 89 - -
18:14 -1,9 -3,3   Windstil 1,6 1020,5 90 - -
18:19 -1,9 -3,3   Windstil 3,2 1020,5 90 - -
18:24 -1,9 -3,3   Windstil   1020,5 90 - -
18:29 -2,1 -3,5   Windstil 1,6 1020,5 90 - -
18:34 -2,1 -3,5 1,4 Oosten 4,8 1020,5 90 - -
18:39 -2,2 -3,6 1,4 Oosten 3,2 1020,5 90 - -
18:44 -2,2 -3,6 3,2 Oosten 4,8 1020,5 90 - -
18:49 -2,2 -3,5   Windstil 1,6 1020,2 91 - -
18:54 -2,2 -3,5 1,4 Oosten 3,2 1020,2 91 - -
18:59 -2,2 -3,5   Windstil 1,6 1020,5 91 - -
19:04 -2,2 -3,5   Windstil   1020,5 91 - -
19:09 -2,3 -3,6 1,4 Oosten 1,6 1020,5 91 - -
19:14 -2,3 -3,6   Windstil   1020,5 91 - -
19:19 -2,3 -3,6   Windstil 1,6 1020,9 91 - -
19:24 -2,3 -3,6 3,2 Oosten 4,8 1020,9 91 - -
19:29 -2,4 -3,7 3,2 Oosten 4,8 1020,9 91 - -
19:34 -2,4 -3,5 1,4 Oosten 4,8 1021,2 92 - -
19:39 -2,4 -3,5 1,4 Oosten 3,2 1021,2 92 - -
19:44 -2,4 -3,5 1,4 Oosten 4,8 1021,2 92 - -
19:49 -2,4 -3,5   Windstil 3,2 1021,2 92 - -
19:54 -2,5 -3,6   Windstil   1021,2 92 - -
19:59 -2,4 -3,5 1,4 Oosten 3,2 1021,2 92 - -
20:04 -2,5 -3,6   Windstil 1,6 1021,2 92 - -
20:09 -2,4 -3,5 1,4 Oosten 4,8 1021,2 92 - -
20:14 -2,5 -3,6   Windstil 3,2 1021,2 92 - -
20:19 -2,5 -3,6 1,4 Oosten 1,6 1021,2 92 - -
20:24 -2,5 -3,6   Windstil 1,6 1021,2 92 - -
20:29 -2,5 -3,6 1,4 Oosten 1,6 1021,2 92 - -
20:34 -2,5 -3,6 1,4 Oosten 1,6 1021,6 92 - -
20:39 -2,5 -3,6 1,4 Oosten 1,6 1021,6 92 - -
20:44 -2,6 -3,7 3,2 Oosten 3,2 1021,6 92 - -
20:49 -2,6 -3,7 1,4 Oosten 1,6 1021,6 92 - -
20:54 -2,6 -3,7 1,4 Oosten 1,6 1021,6 92 - -
20:59 -2,6 -3,7   Windstil   1021,6 92 - -
21:04 -2,6 -3,7   Windstil   1021,6 92 - -
21:09 -2,6 -3,7 1,4 Oosten 1,6 1021,6 92 - -
21:14 -2,6 -3,6   Windstil   1021,6 93 - -
21:19 -2,7 -3,8   Windstil   1021,6 92 - -
21:24 -2,7 -3,8   Windstil   1021,6 92 - -
21:29 -2,7 -3,8   Windstil   1021,6 92 - -
21:34 -2,8 -3,9   Windstil   1021,6 92 - -
21:39 -2,9 -4,0   Windstil   1021,9 92 - -
21:44 -3,1 -4,2   Windstil   1021,6 92 - -
21:49 -3,2 -4,3   Windstil   1021,9 92 - -
21:54 -3,2 -4,3   Windstil   1021,9 92 - -
21:59 -3,3 -4,4   Windstil   1021,9 92 - -
22:04 -3,4 -4,5   Windstil 1,6 1021,9 92 - -
22:09 -3,6 -4,7   Windstil   1021,9 92 - -
22:14 -3,7 -4,8   Windstil   1021,9 92 - -
22:19 -3,7 -4,8   Windstil   1021,9 92 - -
22:24 -3,8 -4,9   Windstil   1022,2 92 - -
22:29 -3,9 -5,0   Windstil   1022,2 92 - -
22:34 -4,0 -5,1   Windstil   1022,2 92 - -
22:39 -4,1 -5,2   Windstil   1022,2 92 - -

Download your copy of this data-set  here

Our weather-data as stored at Weather Underground. Script ontwikkeld door Jim McMurry. Aangepast voor de template door Leuven-Template.eu

U vindt ons ook hier:

Het Weer Aktueel

UK Metoffice

European Weather Network

Weather Underground

AWEKAS

Citizen Weather Observer Program (CWOP)

HAMweather, WeatherForYou, PWS Weather

Apparatuur in gebruik:

Weerstation
Davis Vantage pro 2

Weerprogramma
Meteobridge

Weercomputer
TP-Link TL-WR703N

Webleverancier
Versio

Davis Vantage pro 2

Meteobridge

TP-Link TL-WR703N

Versio